Vertical_Velocity
-1 -1 -1 -1 -1 -1 -1 -1 -1 -0 0 -0 -1 -2 -2 -1 -2 -2 -1 1 -0 -2 -3 -4 -3 -3 -3 -2 -1 -2 -4 -5 -4 -3 -2 -0 -0 0 1 1 1 -0 -1 -2 -1 -1 0 1 2 3 2 1 0 0 0 1 3 4 4 3 -2 -4 -1 5 6 4 1 -1 -1
-1 -1 -0 -0 -0 -0 -1 -2 -1 -0 0 1 0 -1 -2 -2 -2 -2 -2 -1 -1 -1 -2 -5 -4 -3 -3 -3 -2 -2 -2 -4 -4 -3 -2 -2 -1 0 1 1 0 -0 -1 -2 -2 -2 -2 -1 1 2 1 -0 0 -0 -1 -0 3 4 3 3 -1 -3 -0 7 7 5 3 3 4
-1 -1 -0 0 1 1 -0 -1 -1 -1 -0 -0 -0 -0 -1 -1 -1 -1 -2 -3 -2 -1 -1 -3 -4 -4 -4 -5 -4 -2 -2 -2 -2 -3 -3 -3 -2 -1 -0 -0 -0 -1 -1 -2 -2 -2 -2 -0 1 1 0 -0 1 0 -0 -0 3 3 2 2 0 -1 -0 4 3 2 2 4 8
-1 -1 -0 0 1 1 1 -0 -1 -1 -1 -2 -2 -2 -1 -0 -0 -1 -3 -4 -4 -4 -2 -1 -3 -4 -5 -5 -5 -4 -3 -2 -1 -1 -2 -4 -2 -1 -1 -1 -1 -2 -2 -1 -2 -2 -1 1 2 1 0 0 1 1 1 1 3 2 1 1 2 0 -2 -2 -2 -2 -0 1 6
-1 -0 0 0 0 1 1 1 0 -1 -2 -3 -4 -4 -3 -1 -1 -3 -4 -5 -5 -4 -3 -2 -2 -4 -4 -3 -3 -4 -4 -4 -2 -2 -2 -3 -3 -1 0 -0 -2 -2 -1 -1 -1 -1 0 3 3 2 1 1 2 1 1 3 3 2 0 2 2 0 -2 -2 -3 -4 -3 -1 4
-2 -1 0 1 0 0 0 1 1 -0 -1 -2 -3 -4 -3 -2 -2 -3 -3 -3 -3 -2 -1 -1 -2 -3 -3 -2 -2 -2 -2 -3 -4 -4 -4 -3 -3 -2 -0 2 1 -0 -1 -1 -1 1 4 8 6 2 0 2 1 1 2 4 3 1 1 4 4 2 0 1 -2 -3 -2 -1 4
-2 -1 -1 -0 -0 -0 -0 -0 -0 0 0 0 -0 -1 -2 -3 -3 -2 -2 -1 -1 -0 -0 -0 -2 -2 -3 -2 -2 -1 0 2 2 0 -2 -4 -4 -3 -2 -3 -1 1 1 2 4 6 8 11 6 2 -0 1 1 1 2 4 2 1 3 7 6 5 4 4 3 4 6 7 9
-1 -0 -0 -0 -0 -0 -1 -0 -0 0 1 1 1 0 -1 -3 -4 -3 -1 -0 0 -0 -1 -2 -3 -2 -0 1 1 1 2 4 5 6 4 -0 -2 -2 -1 -1 -1 -0 1 4 6 8 8 7 3 0 -0 1 1 2 4 6 4 3 5 9 7 6 4 2 6 9 11 11 11
-1 -1 -0 -1 -0 -0 -0 -0 1 2 2 1 1 0 -1 -3 -3 -2 -1 -0 -1 -1 -2 -3 -2 0 3 5 5 4 3 2 2 2 3 5 2 -0 -1 -0 -1 -0 1 2 5 6 5 2 -0 -0 1 2 1 3 8 12 9 8 8 8 5 4 2 -1 3 7 10 12 12
-2 -2 -2 -2 -1 -1 0 0 2 3 3 1 1 -0 -1 -3 -2 -1 -0 0 -1 -2 -1 -0 1 3 5 6 6 5 4 2 1 -0 -0 0 1 -0 -1 -1 0 1 2 2 3 2 1 -0 -0 1 2 4 2 5 10 14 13 11 8 5 3 3 2 -0 1 4 8 12 11
-2 -2 -3 -3 -2 -1 -0 0 1 2 2 1 0 -1 -2 -2 -1 -0 1 0 -1 -2 -1 1 4 6 7 5 5 5 4 2 0 -0 -0 -1 -1 -1 -0 -0 2 3 3 0 -0 -0 0 1 1 2 3 1 7 12 15 14 10 8 6 5 4 4 3 4 4 4 4 6 6
-2 -3 -3 -3 -2 -2 -1 -0 0 1 1 1 -0 -1 -2 -2 -0 0 1 0 -1 -1 -1 1 4 8 8 4 4 5 5 3 0 -1 -1 -0 0 0 0 -1 -0 -1 -1 -2 -1 -0 1 2 3 2 -3 -12 14 24 21 9 4 2 4 5 3 4 5 6 4 2 -1 -2 -2
-2 -3 -4 -4 -3 -2 -1 -1 -0 0 1 1 -0 -1 -2 -2 0 1 1 -0 -1 -2 -2 -1 3 7 8 3 3 4 4 2 0 -0 -0 -0 0 0 -0 -2 -2 -2 -1 1 2 1 1 1 3 -3 -11 -16 20 29 20 3 -1 -1 2 4 4 3 2 -0 -3 -6 -8 -8 -5
-1 -2 -3 -4 -4 -3 -2 -1 -1 0 1 1 -0 -1 -2 -2 0 1 1 0 -1 -2 -3 -3 1 5 7 4 2 2 2 1 0 1 2 3 4 5 5 3 4 5 6 8 5 2 0 0 0 -6 -10 -2 21 22 12 2 2 1 1 0 -0 -2 -6 -10 -11 -12 -11 -7 -4
-1 -1 -2 -4 -4 -3 -2 -2 -1 0 1 1 -0 -1 -2 -2 -0 1 1 -0 -1 -3 -3 -3 -2 2 6 6 3 1 1 0 0 1 3 5 6 8 8 8 9 10 10 8 3 -0 -1 -1 -1 -3 -1 10 15 12 6 4 5 5 3 -1 -4 -7 -10 -12 -11 -9 -7 -5 -4
-1 -1 -2 -3 -4 -3 -2 -1 -1 -0 1 1 0 -1 -2 -2 -1 0 0 -0 -2 -3 -3 -3 -2 0 4 7 4 2 1 1 1 1 1 1 2 2 2 1 3 3 2 0 -2 -3 -2 -1 3 8 12 13 10 7 4 4 4 4 4 2 -1 -3 -6 -6 -6 -5 -5 -4 -2
-1 -1 -2 -3 -4 -3 -2 -1 -1 0 1 1 0 -0 -1 -1 -1 -0 -0 -0 -2 -3 -4 -4 -2 -1 2 6 5 2 -0 0 0 0 -0 -0 0 0 -1 -3 -3 -4 -4 -5 -4 -3 -1 3 9 12 12 9 8 7 6 5 4 5 4 3 2 1 -1 -2 -4 -4 -4 -1 2
-1 -1 -1 -2 -3 -3 -2 -1 -1 -0 1 2 1 0 -0 -1 -1 -0 -0 -0 -1 -2 -3 -4 -3 -2 -0 4 6 3 0 -1 -0 -1 -2 -2 -1 -1 -1 -2 -4 -5 -6 -6 -4 -2 2 7 9 9 8 8 9 9 8 7 6 6 6 3 2 0 -1 -2 -3 -2 -0 3 4
-2 -1 -1 -2 -3 -3 -3 -2 -2 -1 0 2 2 1 0 -0 -0 -0 -0 -1 -0 -1 -3 -2 -2 -3 -4 -1 5 5 2 0 -1 -2 -2 -3 -2 -2 -2 -3 -3 -4 -4 -3 -1 1 3 4 4 5 7 8 8 8 8 8 6 4 3 1 0 -0 -1 -1 -0 2 4 5 2
-1 -1 -2 -2 -2 -3 -3 -4 -3 -2 -0 1 2 2 1 1 0 -0 -1 -1 -0 -2 -3 -3 -0 -2 -5 -6 0 4 4 0 -0 -1 -1 -2 -1 1 1 1 -0 -1 -1 0 2 4 4 2 3 5 8 8 6 6 8 7 4 2 1 1 2 2 1 1 3 7 8 6 1
-1 -1 -1 -1 -2 -3 -3 -2 -2 -2 -1 0 1 2 2 2 1 -0 -1 -2 -1 -2 -4 -6 1 1 -1 -5 -5 -2 1 0 0 0 0 -0 0 3 6 8 6 4 3 2 3 3 4 4 5 7 8 9 6 6 6 7 5 5 5 6 6 6 6 7 8 10 10 6 3
-1 -0 -1 -1 -2 -2 -2 -2 -2 -1 -1 -0 1 2 2 3 1 -0 -2 -3 -1 -1 -2 -6 -1 3 4 -0 -4 -5 -5 -3 -1 0 1 0 0 1 3 4 6 6 5 4 4 5 5 5 4 4 4 6 4 3 3 5 6 8 9 9 9 10 12 13 11 9 7 3 3
-0 -0 -0 -1 -1 -2 -2 -2 -2 -1 -1 -0 0 1 2 3 2 0 -1 -3 -2 -1 -1 -4 -4 1 5 5 0 -3 -4 -5 -4 -2 -0 1 1 1 0 -0 -0 1 2 4 4 3 2 1 1 0 1 2 2 1 1 4 6 8 8 6 6 8 10 9 7 5 4 3 3
-0 -0 -0 -1 -2 -2 -3 -3 -2 -1 -0 0 1 1 2 3 2 1 -0 -3 -3 -2 -2 -2 -4 -2 2 7 6 2 -2 -3 -3 -3 -2 1 1 1 0 -1 -1 -1 -1 -1 -3 -3 -2 -1 -1 -0 0 1 3 3 4 6 7 6 4 2 1 1 2 1 1 1 2 3 4
-0 -0 -0 -1 -2 -3 -4 -4 -2 -2 -1 0 1 1 2 2 2 1 0 -1 -3 -4 -3 -2 -4 -4 -1 4 9 8 4 -2 -2 -2 -2 -1 1 3 3 2 0 -1 -2 -3 -3 -3 -2 -2 -1 -1 -0 0 2 4 5 6 6 3 1 1 0 0 -1 -1 -2 -3 -3 -2 0
-0 -0 -0 -1 -2 -3 -3 -3 -2 -1 -0 0 1 1 2 2 2 1 0 -1 -2 -3 -3 -3 -4 -5 -4 1 8 9 6 0 -2 -1 -1 -2 -0 2 3 2 1 0 -1 -1 -0 -1 -2 -2 -2 -2 -1 -1 0 2 4 5 2 1 0 1 1 -0 -1 -1 -2 -2 -2 -2 0
-0 -0 -1 -1 -2 -2 -2 -2 -1 -1 -0 0 1 1 2 3 2 2 1 -0 -1 -1 -2 -2 -3 -5 -6 -2 1 2 2 -1 -2 -2 -1 -2 -1 0 2 2 2 2 2 2 1 0 -1 -1 -1 -1 -1 -1 0 3 5 4 1 -0 -0 1 1 1 1 1 2 2 2 3 3
-1 -1 -1 -1 -1 -1 -1 -1 -1 -0 0 1 1 2 2 3 2 2 1 0 0 -0 -1 -2 -2 -4 -5 -5 -4 -3 -3 -3 -3 -2 -2 -2 -2 -1 2 3 3 2 2 2 1 1 0 -0 -0 -0 -1 -1 1 4 6 2 -0 -1 0 1 2 3 4 4 4 4 4 4 4
-0 -1 -1 -2 -1 -1 -1 -1 -0 1 1 2 1 1 2 2 2 2 1 1 0 -1 -2 -3 -2 -2 -3 -3 -3 -2 -1 -1 -1 -3 -3 -2 -3 -2 0 2 1 1 1 0 0 0 -0 -1 -2 -2 -1 -1 4 5 4 -0 -0 0 1 1 2 3 4 5 5 5 4 4 3
-0 -1 -2 -1 -2 -2 -2 -1 0 1 2 2 1 1 1 2 2 2 1 1 -0 -1 -2 -2 -1 -1 -1 -1 -0 -0 0 1 1 -1 -2 -2 -2 -2 -1 0 1 1 0 -1 -1 -1 -1 -2 -1 1 3 6 8 5 1 -1 0 1 1 0 0 1 2 2 3 3 3 2 2
-1 -2 -2 -2 -3 -3 -2 -1 0 1 2 2 1 1 1 1 2 2 1 -0 -1 -1 -0 0 0 -1 -2 -1 -0 0 1 1 1 0 -0 -0 -1 -1 -1 -1 1 1 -0 -1 -1 -1 -1 0 2 4 7 9 6 3 -0 -1 -1 -1 -1 -2 -1 -0 0 0 1 1 2 2 2
-2 -2 -3 -2 -3 -2 -2 -1 0 1 2 2 1 1 1 1 2 2 1 -0 -1 0 1 1 -1 -2 -2 -1 -0 0 0 1 1 1 1 1 1 0 -0 -0 1 1 1 2 3 2 0 0 1 2 3 3 1 -1 -3 -4 -4 -3 -3 -3 -2 -2 -2 -1 0 2 3 4 4
-2 -3 -3 -2 -2 -1 -1 -1 -1 0 1 1 1 1 1 2 2 2 1 1 1 1 1 -0 -2 -2 -2 -1 -1 -1 -0 0 1 1 2 3 3 2 1 0 1 3 5 6 4 2 -0 -1 -1 -1 -1 -2 -3 -4 -5 -5 -5 -6 -6 -6 -6 -5 -6 -6 -6 -4 -2 1 2
-1 -2 -2 -2 -1 -1 -1 -1 -2 -1 0 1 2 2 3 3 3 2 1 1 1 1 0 -0 -1 -1 -1 -1 -1 -1 -0 0 1 1 2 3 4 5 4 4 5 6 7 5 2 0 -1 -1 -2 -3 -3 -4 -5 -5 -5 -6 -8 -9 -10 -11 -10 -8 -7 -7 -9 -12 -12 -10 -6
-0 -1 -1 -1 -1 -0 0 -0 -1 -1 0 2 2 2 3 3 2 1 0 0 1 1 1 -1 -2 -2 -1 1 -0 -1 -2 -2 -1 0 1 2 4 5 7 9 10 9 6 2 1 1 1 1 1 -0 -1 -2 -3 -4 -5 -8 -9 -10 -11 -11 -8 -6 -3 -1 -2 -4 -7 -9 -8
-0 -0 -0 0 1 2 2 1 -1 -2 -1 1 2 2 1 1 0 0 0 0 1 1 0 -3 -4 -4 -1 3 -1 -2 -3 -3 -2 -1 1 3 4 6 8 11 10 6 2 -0 0 1 2 2 1 1 1 1 0 -1 -3 -5 -6 -6 -6 -4 -2 -0 1 3 3 2 1 0 -1
-1 -1 -0 1 3 5 5 3 -1 -3 -3 -1 1 1 1 0 -0 -0 -0 -0 2 2 1 -3 -5 -4 -1 2 -2 -3 -3 -3 -4 -3 -1 3 6 8 9 10 8 4 1 -0 -1 -1 -1 -2 -2 -1 -1 -1 -0 -1 -1 -2 -2 -1 -1 1 2 2 2 3 4 3 3 3 2
-1 -1 -1 -0 1 3 5 6 1 -3 -4 -3 -0 2 2 1 1 0 -0 -1 1 2 1 -1 -2 0 3 2 -1 -2 -3 -3 -4 -5 -3 1 7 11 12 12 10 8 6 5 4 2 -0 -1 -2 -2 -2 -2 -2 -1 -1 -1 -1 -0 0 1 1 1 1 2 3 3 2 1 -0
0 -0 -1 -1 -0 0 2 4 1 -1 -4 -4 -2 1 3 3 2 1 1 1 0 0 -0 -1 -1 2 4 4 1 -0 -1 -2 -4 -5 -5 -3 3 8 10 11 11 12 14 15 11 7 4 2 0 -0 -0 -0 -0 -0 0 0 -0 -0 -0 -0 -0 -0 1 2 3 2 1 0 -0
1 1 0 -0 -0 -1 -1 -0 -0 -1 -2 -4 -2 -0 1 1 -0 -0 0 1 1 0 -0 -0 -0 2 4 6 4 2 1 -1 -3 -4 -6 -7 -4 -2 -1 -0 2 5 8 8 3 1 1 2 1 0 0 1 1 2 2 2 1 0 -0 -1 -0 0 1 1 2 2 2 1 0
1 1 0 -1 -1 -1 -1 -2 -2 -1 -2 -2 -2 -0 0 0 -2 -2 -2 -0 0 0 -0 0 1 1 2 4 5 4 3 0 -1 -3 -5 -8 -9 -9 -8 -8 -7 -6 -6 -8 -10 -8 -4 -1 -0 -0 0 1 1 1 1 1 0 -1 -1 -1 0 1 1 0 1 1 1 1 1
Height
1465 1464 1463 1462 1461 1460 1459 1458 1457 1456 1455 1453 1452 1450 1449 1447 1446 1444 1443 1442 1441 1439 1438 1436 1435 1434 1432 1432 1431 1430 1429 1428 1428 1427 1426 1425 1424 1423 1422 1422 1421 1421 1420 1420 1420 1420 1420 1420 1420 1420 1419 1419 1419 1419 1419 1420 1420 1421 1421 1421 1421 1422 1423 1424 1425 1426 1428 1428 1429
1465 1464 1463 1461 1461 1459 1458 1457 1456 1455 1454 1452 1451 1449 1448 1446 1445 1443 1442 1441 1440 1438 1436 1435 1433 1432 1431 1430 1429 1428 1427 1426 1426 1425 1424 1423 1421 1421 1420 1420 1419 1419 1418 1418 1418 1418 1418 1418 1418 1418 1417 1417 1417 1417 1417 1418 1418 1418 1419 1419 1419 1420 1421 1422 1423 1425 1426 1427 1428
1464 1463 1462 1461 1460 1458 1457 1456 1455 1454 1452 1451 1450 1449 1447 1446 1444 1443 1441 1440 1438 1437 1435 1433 1432 1431 1429 1428 1427 1426 1426 1424 1423 1422 1421 1420 1419 1419 1418 1417 1417 1417 1416 1416 1416 1416 1416 1416 1416 1416 1415 1415 1415 1415 1415 1416 1416 1416 1416 1417 1417 1418 1419 1421 1422 1424 1425 1426 1426
1463 1462 1461 1460 1459 1458 1456 1455 1454 1452 1451 1450 1449 1448 1446 1445 1443 1441 1440 1438 1436 1435 1433 1432 1430 1428 1427 1426 1425 1424 1423 1422 1421 1420 1419 1418 1417 1416 1416 1416 1415 1415 1414 1414 1414 1414 1414 1414 1414 1414 1413 1413 1413 1413 1413 1413 1414 1414 1414 1415 1416 1416 1417 1419 1420 1422 1423 1424 1425
1462 1461 1460 1459 1458 1456 1455 1454 1453 1451 1450 1449 1448 1447 1445 1444 1442 1440 1438 1437 1435 1434 1432 1430 1428 1427 1425 1424 1423 1421 1421 1420 1419 1418 1417 1416 1415 1414 1414 1413 1413 1412 1412 1412 1412 1412 1412 1412 1412 1411 1411 1411 1411 1410 1411 1411 1411 1412 1412 1413 1414 1414 1415 1417 1418 1420 1421 1423 1424
1461 1460 1459 1458 1457 1456 1454 1453 1452 1451 1450 1448 1447 1446 1444 1443 1441 1439 1437 1436 1434 1433 1431 1429 1427 1426 1424 1422 1421 1419 1418 1417 1416 1415 1415 1414 1413 1412 1412 1411 1411 1411 1411 1411 1411 1411 1411 1411 1411 1410 1409 1409 1408 1408 1408 1409 1410 1410 1411 1411 1412 1413 1414 1415 1416 1418 1420 1421 1422
1460 1459 1458 1457 1456 1454 1453 1452 1451 1450 1449 1447 1446 1445 1443 1441 1440 1438 1437 1435 1434 1432 1430 1429 1427 1425 1423 1421 1419 1417 1416 1414 1413 1413 1412 1411 1411 1411 1410 1410 1410 1409 1409 1409 1409 1409 1409 1409 1409 1408 1407 1407 1406 1406 1406 1407 1408 1408 1409 1410 1411 1412 1413 1414 1416 1417 1418 1420 1421
1459 1458 1457 1456 1455 1453 1452 1451 1450 1449 1448 1446 1445 1444 1442 1441 1439 1437 1436 1434 1433 1431 1430 1428 1426 1424 1421 1419 1417 1416 1414 1412 1411 1410 1409 1409 1409 1408 1408 1408 1408 1408 1407 1407 1407 1407 1407 1407 1407 1406 1406 1405 1405 1404 1405 1405 1406 1406 1408 1409 1410 1411 1412 1413 1415 1416 1417 1418 1421
1459 1457 1456 1455 1454 1453 1451 1450 1449 1448 1447 1446 1444 1442 1441 1440 1438 1436 1435 1433 1432 1431 1429 1427 1425 1422 1420 1417 1416 1413 1411 1410 1408 1407 1406 1406 1406 1406 1406 1406 1406 1406 1406 1406 1406 1406 1406 1406 1405 1405 1404 1404 1403 1402 1403 1403 1404 1405 1406 1408 1409 1410 1411 1413 1415 1416 1417 1419 1420
1458 1457 1456 1454 1453 1452 1451 1449 1448 1447 1446 1444 1443 1441 1440 1439 1437 1436 1434 1433 1431 1430 1428 1426 1424 1421 1419 1416 1414 1411 1410 1408 1406 1405 1404 1404 1404 1404 1404 1405 1405 1405 1405 1405 1405 1404 1404 1404 1404 1403 1403 1402 1401 1401 1401 1402 1403 1404 1406 1407 1408 1409 1411 1413 1415 1417 1418 1419 1420
1457 1456 1455 1453 1452 1451 1450 1448 1447 1446 1445 1443 1442 1440 1439 1438 1436 1435 1434 1432 1431 1430 1428 1426 1423 1421 1418 1416 1413 1411 1408 1407 1405 1404 1403 1402 1402 1403 1403 1403 1403 1403 1403 1403 1403 1403 1403 1403 1403 1402 1402 1402 1401 1401 1401 1401 1402 1403 1404 1406 1407 1408 1410 1413 1415 1416 1418 1419 1420
1456 1455 1454 1452 1451 1450 1449 1447 1446 1445 1444 1442 1441 1439 1438 1437 1436 1435 1433 1432 1431 1429 1427 1426 1423 1421 1419 1416 1413 1411 1408 1406 1405 1403 1402 1402 1401 1401 1402 1402 1402 1402 1402 1402 1403 1403 1403 1402 1402 1402 1402 1402 1401 1401 1401 1401 1402 1403 1404 1406 1407 1408 1411 1413 1415 1416 1417 1419 1420
1455 1454 1453 1451 1450 1449 1448 1447 1446 1444 1443 1442 1440 1439 1437 1436 1435 1434 1433 1431 1430 1429 1427 1426 1423 1421 1419 1416 1414 1411 1409 1406 1405 1403 1402 1402 1401 1401 1401 1401 1401 1401 1401 1402 1402 1403 1403 1402 1402 1402 1403 1404 1403 1402 1402 1402 1403 1404 1406 1407 1408 1410 1411 1413 1415 1416 1418 1419 1421
1454 1453 1452 1451 1449 1448 1447 1446 1445 1444 1442 1441 1440 1438 1437 1436 1434 1433 1432 1431 1430 1429 1427 1425 1423 1421 1419 1417 1415 1412 1410 1407 1406 1404 1403 1402 1401 1401 1401 1401 1401 1401 1401 1402 1402 1403 1403 1402 1402 1403 1404 1405 1404 1404 1403 1404 1405 1406 1407 1408 1410 1411 1413 1414 1415 1417 1418 1420 1421
1453 1452 1451 1450 1449 1448 1446 1446 1444 1443 1442 1441 1439 1438 1436 1435 1434 1433 1432 1431 1430 1428 1427 1426 1423 1421 1420 1418 1416 1414 1411 1409 1407 1406 1404 1403 1402 1401 1401 1401 1401 1401 1401 1402 1402 1403 1403 1403 1403 1404 1405 1405 1405 1405 1405 1405 1406 1407 1408 1410 1411 1412 1413 1415 1416 1417 1419 1420 1422
1453 1451 1451 1449 1448 1447 1446 1445 1444 1442 1441 1440 1439 1437 1436 1435 1433 1432 1431 1431 1429 1428 1427 1426 1424 1422 1420 1419 1417 1415 1413 1411 1409 1408 1406 1405 1404 1402 1402 1401 1402 1402 1402 1403 1403 1403 1403 1403 1404 1405 1406 1406 1406 1406 1406 1406 1407 1408 1409 1410 1411 1413 1414 1416 1417 1418 1420 1421 1422
1452 1451 1450 1449 1448 1446 1446 1444 1443 1442 1441 1440 1438 1437 1436 1434 1433 1432 1431 1430 1429 1428 1427 1426 1425 1423 1421 1420 1418 1416 1415 1413 1411 1410 1409 1407 1406 1405 1404 1403 1403 1403 1404 1404 1404 1404 1404 1405 1406 1406 1406 1407 1407 1407 1408 1408 1408 1409 1410 1411 1412 1414 1415 1416 1417 1419 1420 1421 1423
1451 1450 1449 1448 1447 1446 1445 1444 1443 1441 1440 1439 1438 1436 1436 1434 1433 1432 1431 1430 1429 1428 1427 1426 1425 1423 1421 1420 1419 1418 1416 1415 1414 1412 1411 1410 1408 1407 1406 1406 1405 1405 1406 1406 1406 1406 1406 1406 1407 1407 1407 1408 1408 1409 1409 1409 1410 1410 1411 1412 1413 1414 1416 1417 1418 1419 1421 1422 1423
1450 1449 1448 1447 1446 1445 1444 1443 1442 1441 1440 1439 1437 1436 1435 1434 1433 1432 1431 1430 1429 1428 1427 1426 1425 1424 1422 1421 1420 1419 1418 1416 1416 1414 1413 1412 1411 1410 1409 1408 1407 1407 1407 1407 1407 1407 1407 1408 1408 1408 1408 1409 1410 1410 1410 1411 1411 1411 1412 1413 1414 1416 1416 1418 1419 1420 1421 1423 1424
1449 1448 1447 1446 1446 1445 1444 1442 1441 1440 1439 1438 1437 1436 1435 1434 1433 1432 1431 1430 1429 1428 1427 1426 1425 1424 1423 1421 1420 1420 1419 1417 1416 1416 1415 1414 1412 1411 1411 1410 1409 1409 1409 1408 1408 1409 1409 1409 1409 1409 1410 1410 1411 1411 1411 1412 1412 1413 1413 1414 1416 1416 1418 1419 1420 1422 1423 1424 1426
1449 1448 1447 1446 1445 1444 1443 1442 1441 1440 1439 1438 1436 1436 1435 1434 1433 1432 1431 1430 1429 1428 1427 1426 1426 1424 1423 1422 1421 1420 1419 1418 1417 1416 1415 1414 1414 1413 1412 1411 1411 1411 1410 1410 1410 1410 1410 1410 1411 1411 1411 1411 1412 1412 1413 1413 1413 1414 1414 1415 1416 1417 1419 1420 1422 1423 1425 1426 1427
1448 1447 1446 1445 1444 1443 1442 1441 1440 1439 1438 1437 1436 1435 1434 1433 1432 1431 1431 1430 1429 1428 1427 1426 1425 1424 1424 1422 1421 1420 1419 1418 1417 1416 1416 1415 1414 1414 1413 1413 1412 1412 1412 1411 1411 1411 1411 1411 1412 1412 1412 1412 1412 1413 1413 1414 1414 1415 1415 1416 1417 1418 1420 1421 1422 1424 1425 1426 1428
1447 1446 1446 1445 1444 1443 1441 1441 1439 1438 1437 1436 1436 1435 1434 1433 1432 1431 1431 1430 1429 1428 1427 1426 1425 1424 1423 1423 1421 1421 1419 1418 1417 1416 1416 1415 1414 1414 1413 1413 1413 1413 1413 1413 1413 1413 1413 1413 1413 1413 1413 1413 1413 1414 1414 1414 1415 1416 1416 1417 1418 1419 1420 1421 1422 1424 1425 1426 1428
1447 1446 1445 1444 1443 1442 1441 1440 1439 1437 1436 1436 1435 1434 1433 1432 1431 1431 1430 1430 1429 1428 1427 1426 1425 1424 1423 1422 1422 1421 1420 1419 1418 1417 1416 1416 1415 1414 1414 1414 1414 1413 1413 1413 1413 1413 1414 1414 1414 1414 1414 1414 1414 1414 1415 1415 1416 1416 1417 1417 1418 1419 1420 1421 1422 1423 1425 1426 1428
1446 1445 1444 1443 1442 1441 1440 1439 1438 1437 1436 1435 1434 1433 1433 1432 1431 1430 1430 1429 1428 1428 1427 1426 1425 1424 1423 1422 1422 1421 1420 1420 1418 1417 1417 1416 1415 1415 1415 1414 1414 1414 1414 1414 1414 1414 1414 1415 1415 1415 1414 1414 1415 1415 1416 1416 1417 1417 1418 1418 1419 1420 1421 1421 1423 1424 1426 1427 1428
1445 1444 1443 1442 1441 1440 1439 1438 1437 1436 1435 1434 1433 1433 1432 1431 1431 1430 1429 1428 1428 1427 1426 1426 1425 1424 1422 1422 1421 1421 1420 1420 1419 1418 1417 1416 1416 1415 1415 1415 1414 1414 1415 1415 1415 1415 1415 1415 1415 1415 1415 1415 1415 1416 1417 1417 1418 1418 1419 1420 1421 1421 1422 1423 1424 1426 1426 1427 1428
1445 1444 1442 1441 1440 1439 1438 1437 1436 1435 1434 1434 1433 1432 1432 1431 1430 1429 1429 1428 1427 1427 1426 1425 1424 1423 1422 1422 1421 1421 1420 1420 1419 1418 1418 1417 1416 1416 1416 1415 1415 1415 1415 1415 1415 1415 1415 1415 1415 1415 1415 1416 1416 1417 1417 1418 1419 1420 1421 1421 1422 1423 1424 1425 1426 1426 1427 1428 1429
1444 1443 1442 1441 1440 1439 1437 1436 1436 1435 1434 1433 1433 1432 1431 1431 1430 1429 1428 1427 1427 1426 1426 1425 1424 1423 1422 1422 1421 1421 1420 1420 1419 1419 1418 1418 1417 1417 1416 1416 1416 1416 1416 1416 1416 1416 1416 1416 1415 1416 1416 1416 1417 1417 1418 1419 1420 1421 1422 1423 1424 1424 1425 1426 1427 1427 1428 1429 1430
1444 1443 1441 1440 1439 1438 1437 1436 1435 1435 1434 1433 1432 1432 1431 1430 1430 1429 1428 1427 1426 1426 1425 1424 1424 1423 1422 1422 1421 1421 1420 1420 1419 1419 1419 1418 1418 1418 1417 1417 1417 1416 1416 1416 1416 1416 1416 1416 1416 1416 1416 1417 1418 1419 1419 1420 1421 1422 1423 1424 1425 1425 1426 1427 1428 1428 1429 1430 1430
1444 1443 1441 1441 1439 1438 1437 1436 1436 1435 1434 1433 1432 1431 1431 1430 1429 1428 1428 1427 1426 1426 1425 1424 1424 1423 1422 1421 1421 1420 1420 1419 1419 1419 1419 1419 1418 1418 1418 1418 1417 1417 1417 1417 1416 1416 1416 1416 1416 1417 1417 1418 1419 1419 1420 1421 1422 1422 1423 1424 1425 1426 1426 1427 1428 1429 1430 1431 1431
1444 1443 1442 1441 1440 1439 1438 1437 1436 1435 1434 1433 1432 1431 1431 1430 1429 1428 1428 1427 1426 1426 1425 1425 1424 1423 1422 1422 1421 1420 1420 1419 1419 1419 1419 1419 1419 1418 1418 1418 1418 1418 1418 1417 1417 1417 1417 1417 1417 1418 1418 1418 1419 1420 1421 1421 1422 1423 1424 1425 1425 1426 1427 1428 1429 1430 1430 1431 1432
1445 1444 1443 1442 1441 1440 1439 1438 1437 1436 1435 1434 1433 1432 1431 1430 1429 1429 1428 1427 1427 1426 1426 1425 1424 1424 1423 1422 1421 1421 1420 1419 1419 1419 1418 1418 1418 1418 1418 1418 1418 1418 1418 1418 1418 1418 1418 1418 1418 1418 1419 1419 1420 1421 1421 1422 1423 1424 1425 1425 1426 1427 1428 1428 1429 1430 1431 1432 1432
1446 1445 1444 1443 1442 1441 1440 1439 1438 1437 1436 1435 1434 1432 1431 1431 1430 1429 1428 1428 1427 1426 1426 1425 1425 1424 1424 1423 1422 1421 1421 1420 1419 1419 1418 1418 1418 1419 1419 1419 1419 1419 1419 1419 1419 1419 1419 1419 1420 1420 1420 1421 1421 1422 1423 1423 1424 1425 1426 1426 1427 1428 1429 1430 1431 1431 1432 1432 1433
1446 1445 1444 1443 1442 1442 1441 1440 1439 1438 1437 1436 1435 1433 1432 1431 1431 1430 1429 1428 1428 1427 1426 1426 1426 1425 1425 1424 1423 1422 1421 1420 1420 1419 1419 1419 1419 1419 1419 1419 1420 1420 1420 1420 1420 1420 1421 1421 1421 1422 1422 1423 1423 1424 1424 1425 1425 1426 1427 1428 1428 1429 1430 1431 1432 1433 1433 1434 1434
1446 1446 1445 1444 1443 1442 1442 1441 1440 1439 1438 1437 1436 1435 1433 1432 1431 1431 1430 1429 1429 1428 1427 1427 1426 1426 1425 1425 1424 1423 1422 1421 1420 1420 1419 1419 1419 1419 1419 1420 1420 1421 1421 1421 1421 1422 1422 1422 1423 1423 1424 1424 1424 1425 1425 1425 1426 1427 1428 1429 1429 1430 1431 1432 1433 1434 1434 1435 1435
1446 1446 1445 1444 1444 1443 1442 1441 1441 1440 1439 1438 1436 1436 1434 1433 1432 1432 1431 1431 1430 1429 1428 1428 1427 1426 1426 1426 1425 1424 1423 1422 1421 1420 1420 1420 1420 1420 1420 1421 1421 1422 1422 1423 1423 1423 1424 1424 1425 1425 1425 1425 1426 1426 1426 1426 1427 1428 1429 1429 1430 1431 1431 1432 1432 1433 1434 1435 1435
1447 1446 1445 1444 1444 1443 1442 1442 1441 1440 1439 1438 1437 1436 1435 1434 1433 1433 1432 1431 1431 1430 1429 1429 1428 1427 1427 1426 1426 1425 1424 1423 1422 1421 1421 1421 1421 1421 1421 1422 1422 1423 1423 1424 1424 1425 1425 1426 1426 1426 1427 1427 1427 1427 1427 1428 1428 1429 1429 1430 1430 1431 1431 1432 1433 1433 1434 1434 1435
1446 1446 1445 1444 1443 1443 1442 1442 1441 1441 1440 1439 1438 1437 1436 1435 1434 1434 1433 1432 1431 1431 1430 1429 1429 1428 1427 1427 1426 1426 1425 1425 1424 1423 1423 1422 1422 1422 1423 1423 1424 1424 1425 1425 1426 1426 1426 1427 1427 1427 1428 1428 1428 1428 1429 1429 1429 1430 1430 1431 1431 1431 1432 1432 1433 1433 1434 1434 1435
1446 1446 1445 1444 1443 1443 1442 1442 1441 1441 1440 1439 1438 1437 1436 1436 1435 1434 1433 1433 1432 1431 1431 1430 1429 1429 1428 1428 1427 1426 1426 1426 1425 1425 1425 1424 1424 1424 1424 1424 1425 1425 1426 1426 1426 1427 1427 1427 1428 1428 1428 1429 1429 1429 1429 1430 1430 1430 1431 1431 1431 1431 1432 1432 1433 1433 1434 1434 1435
1446 1445 1445 1444 1443 1443 1442 1442 1441 1441 1440 1439 1439 1438 1437 1436 1435 1434 1434 1433 1432 1432 1431 1431 1430 1429 1429 1428 1428 1427 1427 1426 1426 1426 1426 1426 1426 1426 1426 1426 1425 1426 1426 1426 1427 1427 1428 1428 1428 1429 1429 1429 1429 1430 1430 1430 1430 1431 1431 1431 1431 1431 1432 1432 1433 1433 1433 1434 1434
1445 1445 1444 1444 1443 1443 1442 1441 1441 1441 1440 1439 1439 1438 1437 1436 1436 1435 1434 1433 1432 1432 1431 1431 1431 1430 1430 1429 1429 1428 1428 1427 1427 1427 1427 1427 1427 1427 1427 1427 1427 1426 1427 1427 1428 1428 1428 1429 1429 1429 1429 1429 1430 1430 1430 1431 1431 1431 1431 1431 1431 1431 1432 1432 1433 1433 1434 1434 1434